COSMOS 2339

Satellite information

Favourite Embed

Satellite Type and Status

PAYLOADIN ORBIT

Key statistics

Satellite COSMOS 2339 at a glance.

Uptime

10482

Days in orbit

Revolutions

≈ 12.6

Per day

Orbit

LEO

Low Earth Orbit

Inclination

82.6

Latest

Satellite identification and parameters

Extended collection of information and parameters for COSMOS 2339.

Object identification

Identified? True

Debris? False

Object name: COSMOS 2339

International designator: 1997-006C

Object number (NORAD): 24727

Object ID (CCSDS): 24727

Country: COMMONWEALTH OF INDEPENDENT STATES (CIS)

Current information (Y/N): Y

RCS size: LARGE

Orbital parameters

Period: 114.071 minutes

Inclination: 82.6075 deg

SMA: 7791.3 km

Apoapsis: 1414.144 km

Periapsis: 1412.187 km

RAAN: 43.7364 deg

Eccentricy: 0.00012558

Argument of periapsis: 132.8363 deg

Mean anomaly: 351.63 deg

Mean motion: 12.62373416 rev/day

Mean motion (dot): 0.00000029 rev/day2

B* drag term: 0.000103019 1/REarth

Two-line elements (TLE)

Creation date: Oct. 27, 2025, 2:46 a.m.

Reference frame: TEME

Reference center: EARTH

Epoch: Oct. 26, 2025, 8:12 p.m. UTC

TLE line 0: 0 COSMOS 2339

TLE line 1: 1 24727U 97006C 25299.84194788 .00000029 00000-0 10302-3 0 9990

TLE line 2: 2 24727 82.6075 43.7364 0001256 132.8363 351.6300 12.62373416322133

Live tracking on map

Real-time ground track for satellite COSMOS 2339.

In-orbit conjunctions

A list of the most updated potential collisions computed for object COSMOS 2339.

Target Orbit TCA Probability of collision Miss distance Type
ARIANE 42P DEB LEO 2024-11-05 07:26:20 0.0004483031 384.0 (m) DEBRIS

Associated space launch

Gonets- satellite were the civilian derivate of the military Strela-3 satellite system. The Gonets system was offered to support international health organizations to meet their global communications needs for the transfer of medical data and records to remote sites. Strela-3 was second generation of strategic store-dump military communications satellite. Development of this generation to replace the first generation Strela-1M and Strela-2M satellites began in 1973.

COSMOS 2339 was lifted into orbit during the mission ‘Tsiklon-3 | Strela-3 116 to 118 & Gonets 4 to 6’, on board a Tsiklon-3 space rocket.

The launch took place on Feb. 14, 1997, 3:47 a.m. from 32/1.

For more information about the launch, click the button.

Launch to space Tsiklon-3 | Strela-3 116 to 118 & Gonets 4 to 6
Tsiklon-3 | Strela-3 116 to 118 & Gonets 4 to 6

Agency: N/A

Status: Launch Successful

Launch date: Feb. 14, 1997, 3:47 a.m. UTC

Rocket: Tsiklon-3

Launch pad: 32/1

Location: Plesetsk Cosmodrome, Russian Federation

...

Latest news about this satellite

There are no fresh news available about this satellite. Check back as we update our databases every day.


Newsletter sign-up

Weekly statistics, charts and insights to help you stay on top of the space industry.